TimeMDT,TemperatureF,Dew PointF,Humidity,Sea Level PressureIn,VisibilityMPH,Wind Direction,Wind SpeedMPH,Gust SpeedMPH,PrecipitationIn,Events,Conditions,WindDirDegrees,DateUTC
12:15 AM,46.4,26.6,46,30.21,10.0,NW,3.5,-,N/A,,Clear,320,2013-10-23 06:15:00
12:35 AM,48.2,26.6,43,30.20,10.0,NNW,3.5,-,N/A,,Clear,330,2013-10-23 06:35:00
12:55 AM,48.2,26.6,43,30.20,10.0,NNW,3.5,-,N/A,,Clear,340,2013-10-23 06:55:00
1:15 AM,48.2,26.6,43,30.20,10.0,NNW,4.6,-,N/A,,Clear,340,2013-10-23 07:15:00
1:35 AM,44.6,24.8,46,30.20,10.0,North,4.6,-,N/A,,Clear,10,2013-10-23 07:35:00
1:55 AM,42.8,24.8,49,30.20,10.0,Calm,Calm,-,N/A,,Clear,0,2013-10-23 07:55:00
2:15 AM,41.0,24.8,53,30.20,10.0,Calm,Calm,-,N/A,,Clear,0,2013-10-23 08:15:00
2:35 AM,44.6,26.6,49,30.20,10.0,Calm,Calm,-,N/A,,Clear,0,2013-10-23 08:35:00
2:55 AM,42.8,24.8,49,30.20,10.0,Calm,Calm,-,N/A,,Clear,0,2013-10-23 08:55:00
3:15 AM,39.2,24.8,56,30.20,10.0,Calm,Calm,-,N/A,,Clear,0,2013-10-23 09:15:00
3:35 AM,41.0,28.4,61,30.20,10.0,SE,3.5,-,N/A,,Clear,130,2013-10-23 09:35:00
3:55 AM,41.0,24.8,53,30.20,10.0,Calm,Calm,-,N/A,,Clear,0,2013-10-23 09:55:00
4:15 AM,44.6,24.8,46,30.20,10.0,Calm,Calm,-,N/A,,Clear,0,2013-10-23 10:15:00
4:35 AM,44.6,24.8,46,30.20,10.0,North,4.6,-,N/A,,Clear,360,2013-10-23 10:35:00
4:55 AM,44.6,24.8,46,30.21,10.0,North,4.6,-,N/A,,Clear,10,2013-10-23 10:55:00
5:15 AM,48.2,24.8,40,30.21,10.0,NNW,4.6,-,N/A,,Clear,340,2013-10-23 11:15:00
5:35 AM,46.4,24.8,43,30.21,10.0,NNE,5.8,-,N/A,,Clear,20,2013-10-23 11:35:00
5:55 AM,42.8,24.8,49,30.21,10.0,NE,8.1,-,N/A,,Clear,40,2013-10-23 11:55:00
6:15 AM,42.8,24.8,49,30.22,10.0,North,4.6,-,N/A,,Clear,360,2013-10-23 12:15:00
6:35 AM,44.6,26.6,49,30.22,10.0,NNE,5.8,-,N/A,,Clear,20,2013-10-23 12:35:00
6:55 AM,46.4,24.8,43,30.22,10.0,NNE,9.2,-,N/A,,Clear,30,2013-10-23 12:55:00
7:15 AM,44.6,24.8,46,30.22,10.0,North,9.2,-,N/A,,Clear,10,2013-10-23 13:15:00
7:35 AM,46.4,26.6,46,30.22,10.0,North,8.1,-,N/A,,Clear,350,2013-10-23 13:35:00
7:55 AM,48.2,26.6,43,30.23,10.0,NNW,6.9,-,N/A,,Clear,340,2013-10-23 13:55:00
8:15 AM,51.8,26.6,38,30.23,10.0,North,4.6,-,N/A,,Clear,350,2013-10-23 14:15:00
8:35 AM,55.4,28.4,36,30.24,10.0,Calm,Calm,-,N/A,,Clear,0,2013-10-23 14:35:00
8:55 AM,55.4,28.4,36,30.24,10.0,WNW,3.5,-,N/A,,Clear,290,2013-10-23 14:55:00
9:15 AM,57.2,28.4,33,30.24,10.0,West,3.5,-,N/A,,Clear,280,2013-10-23 15:15:00
9:35 AM,59.0,28.4,31,30.25,10.0,West,3.5,-,N/A,,Clear,260,2013-10-23 15:35:00
9:55 AM,59.0,28.4,31,30.25,10.0,West,4.6,-,N/A,,Clear,280,2013-10-23 15:55:00
10:15 AM,60.8,30.2,31,30.25,10.0,SW,3.5,-,N/A,,Clear,230,2013-10-23 16:15:00
10:35 AM,62.6,28.4,27,30.25,10.0,WSW,3.5,-,N/A,,Clear,240,2013-10-23 16:35:00
10:55 AM,62.6,28.4,27,30.24,10.0,Calm,Calm,-,N/A,,Clear,0,2013-10-23 16:55:00
11:15 AM,64.4,30.2,28,30.24,10.0,WSW,5.8,-,N/A,,Clear,240,2013-10-23 17:15:00
11:35 AM,66.2,28.4,24,30.24,10.0,WSW,4.6,-,N/A,,Clear,240,2013-10-23 17:35:00
11:55 AM,66.2,28.4,24,30.23,10.0,Calm,Calm,-,N/A,,Clear,0,2013-10-23 17:55:00
12:15 PM,68.0,28.4,23,30.22,10.0,South,3.5,-,N/A,,Clear,180,2013-10-23 18:15:00
12:35 PM,68.0,28.4,23,30.21,10.0,West,3.5,-,N/A,,Clear,260,2013-10-23 18:35:00
12:55 PM,69.8,28.4,21,30.20,10.0,West,3.5,-,N/A,,Clear,260,2013-10-23 18:55:00
1:15 PM,71.6,28.4,20,30.19,10.0,WSW,4.6,-,N/A,,Clear,250,2013-10-23 19:15:00
1:35 PM,71.6,28.4,20,30.18,10.0,Calm,Calm,-,N/A,,Clear,0,2013-10-23 19:35:00
1:55 PM,73.4,26.6,18,30.17,10.0,SE,3.5,-,N/A,,Clear,140,2013-10-23 19:55:00
2:15 PM,73.4,24.8,16,30.16,10.0,SW,6.9,-,N/A,,Clear,230,2013-10-23 20:15:00
2:35 PM,71.6,24.8,17,30.15,10.0,Calm,Calm,-,N/A,,Clear,0,2013-10-23 20:35:00
2:55 PM,73.4,23.0,15,30.15,10.0,WNW,3.5,-,N/A,,Clear,290,2013-10-23 20:55:00
3:15 PM,73.4,24.8,16,30.14,10.0,WSW,4.6,-,N/A,,Clear,240,2013-10-23 21:15:00
3:35 PM,73.4,23.0,15,30.14,10.0,SSE,3.5,-,N/A,,Clear,160,2013-10-23 21:35:00
3:55 PM,73.4,23.0,15,30.14,10.0,Calm,Calm,-,N/A,,Clear,0,2013-10-23 21:55:00
4:15 PM,73.4,23.0,15,30.13,10.0,WSW,3.5,-,N/A,,Clear,250,2013-10-23 22:15:00
4:35 PM,73.4,23.0,15,30.13,10.0,Calm,Calm,-,N/A,,Clear,0,2013-10-23 22:35:00
4:55 PM,73.4,23.0,15,30.12,10.0,Calm,Calm,-,N/A,,Clear,0,2013-10-23 22:55:00
5:15 PM,73.4,23.0,15,30.11,10.0,Calm,Calm,-,N/A,,Clear,0,2013-10-23 23:15:00
5:35 PM,73.4,23.0,15,30.12,10.0,WSW,4.6,-,N/A,,Clear,250,2013-10-23 23:35:00
5:55 PM,71.6,24.8,17,30.12,10.0,Calm,Calm,-,N/A,,Clear,0,2013-10-23 23:55:00
6:15 PM,68.0,26.6,21,30.13,10.0,SSW,3.5,-,N/A,,Clear,210,2013-10-24 00:15:00
6:35 PM,64.4,26.6,24,30.13,10.0,South,3.5,-,N/A,,Clear,190,2013-10-24 00:35:00
6:55 PM,62.6,28.4,27,30.14,10.0,South,3.5,-,N/A,,Clear,190,2013-10-24 00:55:00
7:15 PM,57.2,24.8,29,30.14,10.0,East,6.9,-,N/A,,Clear,90,2013-10-24 01:15:00
7:35 PM,57.2,24.8,29,30.14,10.0,East,6.9,-,N/A,,Clear,80,2013-10-24 01:35:00
7:55 PM,57.2,23.0,27,30.15,10.0,East,8.1,-,N/A,,Clear,80,2013-10-24 01:55:00
8:15 PM,57.2,23.0,27,30.14,10.0,East,8.1,-,N/A,,Clear,80,2013-10-24 02:15:00
8:35 PM,57.2,23.0,27,30.14,10.0,ENE,9.2,-,N/A,,Clear,70,2013-10-24 02:35:00
8:55 PM,55.4,21.2,26,30.14,10.0,ENE,9.2,-,N/A,,Clear,60,2013-10-24 02:55:00
9:15 PM,57.2,21.2,25,30.14,10.0,ENE,9.2,-,N/A,,Clear,60,2013-10-24 03:15:00
9:35 PM,57.2,23.0,27,30.14,10.0,ENE,9.2,-,N/A,,Clear,60,2013-10-24 03:35:00
9:55 PM,57.2,23.0,27,30.15,10.0,ENE,6.9,-,N/A,,Clear,60,2013-10-24 03:55:00
10:15 PM,57.2,23.0,27,30.15,10.0,ENE,8.1,-,N/A,,Clear,60,2013-10-24 04:15:00
10:35 PM,55.4,23.0,29,30.15,10.0,ENE,8.1,-,N/A,,Clear,70,2013-10-24 04:35:00
10:55 PM,57.2,23.0,27,30.15,10.0,ENE,6.9,-,N/A,,Clear,60,2013-10-24 04:55:00
11:15 PM,59.0,23.0,25,30.15,10.0,NE,4.6,-,N/A,,Clear,50,2013-10-24 05:15:00
11:35 PM,59.0,24.8,27,30.15,10.0,ENE,6.9,-,N/A,,Clear,60,2013-10-24 05:35:00
11:55 PM,57.2,24.8,29,30.15,10.0,NE,4.6,-,N/A,,Clear,40,2013-10-24 05:55:00